This is the latest recevied weather packets stored in our database for station/object WA9NNN-10. If no packets are shown the sender has not sent any weather packets the latest 10 day(s).
| Time | Temp. | Humidity | Pressure | Rain* | Wind** | Luminosity | Snow |
|---|---|---|---|---|---|---|---|
| 1788546811 | 30.56° C | 64% | 1013.6 hPa | 0 mm | - | - | - |
| 1788546512 | 30° C | 64% | 1013.6 hPa | 0 mm | - | - | - |
| 1788546212 | 30° C | 63% | 1013.7 hPa | 0 mm | - | - | - |
| 1788545912 | 30.56° C | 63% | 1013.8 hPa | 0 mm | - | - | - |
| 1788545612 | 30.56° C | 62% | 1013.9 hPa | 0 mm | - | - | - |
| 1788545311 | 30.56° C | 62% | 1014 hPa | 0 mm | - | - | - |
| 1788545011 | 30.56° C | 61% | 1014.2 hPa | 0 mm | - | - | - |
| 1788544711 | 31.11° C | 61% | 1014.4 hPa | 0 mm | - | - | - |
| 1788544411 | 31.67° C | 61% | 1014.6 hPa | 0 mm | - | - | - |
| 1788544111 | 31.67° C | 62% | 1015 hPa | 0 mm | - | - | - |
| 1788543811 | 31.11° C | 63% | 1015.5 hPa | 0 mm | - | - | - |
| 1788543511 | 31.11° C | 65% | 1015.7 hPa | 0 mm | - | - | - |
| 1788543211 | 30.56° C | 66% | 1016.1 hPa | 0 mm | - | - | - |
| 1788542940 | 30.56° C | 65% | 1016.2 hPa | 0 mm | - | - | - |
| 1788542611 | 30° C | 67% | 1016.4 hPa | 0 mm | - | - | - |
| 1788542311 | 30° C | 67% | 1016.1 hPa | 0 mm | - | - | - |
| 1788542011 | 29.44° C | 67% | 1016.1 hPa | 0 mm | - | - | - |
| 1788541711 | 29.44° C | 69% | 1016.2 hPa | 0 mm | - | - | - |
| 1788541411 | 28.33° C | 71% | 1016.2 hPa | 0 mm | - | - | - |
| 1788541111 | 28.33° C | 72% | 1016.2 hPa | 0 mm | - | - | - |
| 1788540811 | 27.78° C | 74% | 1016.3 hPa | 0 mm | - | - | - |
| 1788540512 | 27.22° C | 76% | 1016.3 hPa | 0 mm | - | - | - |
| 1788540211 | 27.22° C | 77% | 1016.5 hPa | 0 mm | - | - | - |
| 1788539911 | 26.67° C | 77% | 1016.6 hPa | 0 mm | - | - | - |
| 1788539611 | 27.22° C | 76% | 1016.7 hPa | 0 mm | - | - | - |
* Rain latest hour (hover to see other rain measurements)
** Current wind speed in m/s (hover to see current wind gust speed)